This is the latest recevied weather packets stored in our database for station/object VA7SCH-13. If no packets are shown the sender has not sent any weather packets the latest 10 day(s).
| Time | Temp. | Humidity | Pressure | Rain* | Wind** | Luminosity | Snow |
|---|---|---|---|---|---|---|---|
| 1778190947 | 26.11° C | 25% | 1016.2 hPa | 0 mm | - | - | - |
| 1778188547 | 25.56° C | 25% | 1017.4 hPa | 0 mm | - | - | - |
| 1778186725 | 26.11° C | 25% | 1017.5 hPa | 0 mm | - | - | - |
| 1778183727 | 25° C | 26% | 1018.7 hPa | 0 mm | - | - | - |
| 1778180725 | 23.89° C | 29% | 1018.6 hPa | 0 mm | - | - | - |
| 1778177124 | 22.78° C | 33% | 1018.8 hPa | 0 mm | - | - | - |
| 1778175324 | 21.67° C | 35% | 1019.7 hPa | 0 mm | - | - | - |
| 1778171124 | 20.56° C | 40% | 1020 hPa | 0 mm | - | - | - |
| 1778168724 | 19.44° C | 43% | 1019.8 hPa | 0 mm | - | - | - |
| 1778166324 | 16.11° C | 48% | 1019.6 hPa | 0 mm | - | - | - |
| 1778162123 | 11.67° C | 65% | 1019.3 hPa | 0 mm | - | - | - |
| 1778156123 | 11.67° C | 64% | 1019.7 hPa | 0 mm | - | - | - |
| 1778152523 | 11.67° C | 64% | 1018.9 hPa | 0 mm | - | - | - |
| 1778144722 | 13.33° C | 58% | 1019 hPa | 0 mm | - | - | - |
| 1778142321 | 13.89° C | 56% | 1017.8 hPa | 0 mm | - | - | - |
| 1778141741 | 14.44° C | 56% | 1017.8 hPa | 0 mm | - | - | - |
| 1778139321 | 15° C | 55% | 1017.7 hPa | 0 mm | - | - | - |
| 1778136321 | 15° C | 54% | 1016.3 hPa | 0 mm | - | - | - |
| 1778133921 | 15.56° C | 52% | 1016.3 hPa | 0 mm | - | - | - |
| 1778130321 | 16.67° C | 49% | 1015.1 hPa | 0 mm | - | - | - |
| 1778128519 | 17.78° C | 47% | 1014.9 hPa | 0 mm | - | - | - |
| 1778122537 | 19.44° C | 41% | 1013.3 hPa | 0 mm | - | - | - |
| 1778120137 | 21.11° C | 36% | 1012.2 hPa | 0 mm | - | - | - |
| 1778119557 | 21.67° C | 37% | 1012.1 hPa | 0 mm | - | - | - |
| 1778118357 | 22.22° C | 37% | 1012.1 hPa | 0 mm | - | - | - |
* Rain latest hour (hover to see other rain measurements)
** Current wind speed in m/s (hover to see current wind gust speed)